Regional Weather Roundup
Issued by NWS

Home | Current Version | Previous Version | Text Only | Print | Product List | Glossary Off
Versions: 1 2 3 4 5 6 7 8 9 10 11 12 13 14 15 16 17 18 19 20 21 22 23 24 25 26 27 28 29 30 31 32 33 34 35 36 37 38 39 40 41 42 43 44 45 46 47 48 49 50

000
ASUS43 KIND 310009
RWRIN

WEATHER ROUNDUP FOR INDIANA
NATIONAL WEATHER SERVICE INDIANAPOLIS IN
800 PM EDT THU OCT 30 2014

NOTE: "FAIR" INDICATES FEW OR NO CLOUDS BELOW 12,000 FEET WITH NO
SIGNIFICANT WEATHER AND/OR OBSTRUCTIONS TO VISIBILITY.

* - STATION DOES NOT REPORT WEATHER SUCH AS PRECIPITATION OR FOG.

+ - STATION NOT QUALITY CONTROLLED BY THE NATIONAL WEATHER SERVICE.
    USE DATA WITH CAUTION...ESPECIALLY DEWPOINT AND RELATIVE
    HUMIDITY OBSERVATIONS.

INZ001>003-010>013-019-020-310100-
NORTHWEST INDIANA

CITY           SKY/WX    TMP DP  RH WIND       PRES   REMARKS
GARY /AIRPORT/ CLOUDY    50  36  57 W8        30.07S
KNOX *+        CLOUDY    46  35  66 CALM      30.06S
LA PORTE +     CLOUDY    48  37  65 CALM      30.07S
6HR MIN TEMP:  47; 6HR MAX TEMP:  52;

MICHIGAN CITY+ CLOUDY    46  32  57 CALM      30.07S
MONTICELLO +   CLOUDY    46  40  78 CALM      30.06S
RENSSELAER +   CLOUDY    46  39  76 CALM      30.07S
VALPARAISO     CLOUDY    46  36  68 W5        30.07S
6HR MIN TEMP:  46; 6HR MAX TEMP:  51;


$$

LMZ046-743>745-310100-
SOUTHERN LAKE MICHIGAN

STATION/POSITION TIME  TEMP WIND        PRES
                       AIR  DIR/SP/G
                 (UTC) (F)  (DEG/KT/KT) (MB)
MICHIGAN CITY    0000   49  200/  9/ 11   N/A

$$

INZ004-005-014>016-021>024-310100-
NORTH CENTRAL INDIANA

CITY           SKY/WX    TMP DP  RH WIND       PRES   REMARKS
ELKHART        CLOUDY    46  32  57 CALM      30.06F
GOSHEN         CLOUDY    48  36  63 W5        30.06S
6HR MIN TEMP:  47; 6HR MAX TEMP:  52;

LOGANSPORT +   CLOUDY    46  34  61 N3        30.07S
PERU/GRISSOM   CLOUDY    49  38  64 NW5       30.06S
6HR MIN TEMP:  49; 6HR MAX TEMP:  53;

ROCHESTER +    CLOUDY    50  34  53 CALM      30.07S
SOUTH BEND     CLOUDY    49  34  56 CALM      30.07S
6HR MIN TEMP:  48; 6HR MAX TEMP:  53;

WARSAW +       CLOUDY    46  36  66 CALM      30.06F

$$

INZ006>009-017-018-025>027-310100-
NORTHEAST INDIANA

CITY           SKY/WX    TMP DP  RH WIND       PRES   REMARKS
ANGOLA *+      CLOUDY    46  36  66 CALM      30.06S
AUBURN +       CLOUDY    45  36  70 CALM      30.07F
FORT WAYNE     CLOUDY    46  35  65 SE5       30.08S
6HR MIN TEMP:  46; 6HR MAX TEMP:  50;

HUNTINGTON +   CLOUDY   N/A N/A N/A CALM      30.07S

$$

INZ028-029-035-036-043>045-051>053-310100-
WEST CENTRAL INDIANA

CITY           SKY/WX    TMP DP  RH WIND       PRES   REMARKS
GREENCASTLE +  CLOUDY    50  34  53 CALM      30.06S
LAFAYETTE      CLOUDY    48  37  65 CALM      30.06F
6HR MIN TEMP:  48; 6HR MAX TEMP:  52;

TERRE HAUTE    LGT RAIN  50  42  74 CALM      30.06S
6HR MIN TEMP:  50; 6HR MAX TEMP:  54; 6HR PCP: TRACE;


$$

INZ030>032-037>040-046>048-054>057-064-065-310100-
CENTRAL INDIANA

CITY           SKY/WX    TMP DP  RH WIND       PRES   REMARKS
CP ATTERBURY + MOCLDY    50  36  57 CALM      30.07S
COLUMBUS       PTCLDY    48  37  66 CALM      30.06F
FRANKFORT +    CLOUDY    49  38  64 W3        30.08S
INDIANAPOLIS   CLOUDY    51  33  50 CALM      30.05S
6HR MIN TEMP:  50; 6HR MAX TEMP:  53;

-EAGLE CREEK   CLOUDY    49  36  61 CALM      30.05S
6HR MIN TEMP:  49; 6HR MAX TEMP:  54;

KOKOMO *+      CLOUDY    48  37  66 CALM      30.07S
MARION +       CLOUDY    47  35  62 CALM      30.07S HAZE
MT COMFORT *+  CLOUDY    46  30  53 CALM      30.07S
SHELBYVILLE    MOCLDY    49  36  61 CALM      30.06R
6HR MIN TEMP:  47; 6HR MAX TEMP:  55;

ZIONSVILLE +   CLOUDY    47  38  68 CALM      30.06F
6HR MIN TEMP:  47; 6HR MAX TEMP:  54;


$$

INZ033-034-041-042-049-050-058-059-310100-
EAST CENTRAL INDIANA

CITY           SKY/WX    TMP DP  RH WIND       PRES   REMARKS
MUNCIE         CLOUDY    46  38  73 E5        30.06F
6HR MIN TEMP:  46; 6HR MAX TEMP:  52;


$$

INZ060-061-067>069-081>083-085>088-310100-
SOUTHWEST INDIANA

CITY           SKY/WX    TMP DP  RH WIND       PRES   REMARKS
EVANSVILLE     MOCLDY    52  41  66 NE3       30.06S
6HR MIN TEMP:  52; 6HR MAX TEMP:  58;

HUNTINGBURG *+ MOCLDY    52  37  58 E3        30.06S
6HR MIN TEMP:  52; 6HR MAX TEMP:  57;

WASHINGTON +   CLOUDY    51  40  66 CALM      30.05S
6HR MIN TEMP:  50; 6HR MAX TEMP:  56;


$$

INZ062-063-066-070>080-084-089>092-310100-
SOUTH CENTRAL AND SOUTHEAST INDIANA

CITY           SKY/WX    TMP DP  RH WIND       PRES   REMARKS
BLOOMINGTON    CLOUDY    50  38  63 CALM      30.06S
6HR MIN TEMP:  50; 6HR MAX TEMP:  55;


$$




USA.gov is the U.S. government's official web portal to all federal, state and local government web resources and services.